Location: Ariel
(45.9570°N, 122.5700°W)
Time: 15:43:19
(UTC-07:00)

A-11 Canister half - All Passes

Search period start: 18 July 2019 00:00
Search period end: 28 July 2019 00:00
Orbit: 1526 x 1683 km, 47.3° (Epoch: 17 July)

Date Brightness Start Highest point End Pass type
(mag) Time Alt. Az. Time Alt. Az. Time Alt. Az.
18 Jul - 00:29:18 10° WSW 00:39:17 87° NNW 00:48:56 10° E visible
18 Jul - 02:34:52 10° WNW 02:44:41 89° NNE 02:54:10 10° ESE visible
18 Jul - 04:40:11 10° WNW 04:49:19 51° SW 04:58:13 10° SE visible
18 Jul - 06:47:29 10° W 06:52:30 16° SW 06:57:29 10° SSW daylight
18 Jul - 20:03:07 10° SSE 20:09:20 19° SE 20:15:29 10° E daylight
18 Jul - 22:03:10 10° SW 22:12:49 54° SE 22:22:12 10° ENE visible
19 Jul - 00:07:37 10° WSW 00:17:38 88° NNW 00:27:18 10° E visible
19 Jul - 02:13:11 10° W 02:23:04 88° NNE 02:32:33 10° ESE visible
19 Jul - 04:18:32 10° WNW 04:27:45 53° SW 04:36:42 10° SE visible
19 Jul - 06:25:33 10° W 06:30:59 17° SW 06:36:23 10° SSW daylight
19 Jul - 19:41:54 10° SSE 19:47:48 17° SE 19:53:36 10° E daylight
19 Jul - 21:41:36 10° SW 21:51:12 52° SE 22:00:34 10° ENE visible
19 Jul - 23:45:57 10° WSW 23:55:59 89° N 00:05:41 10° ENE visible
20 Jul - 01:51:30 10° W 02:01:24 87° NNE 02:10:57 10° ESE visible
20 Jul - 03:56:51 10° WNW 04:06:09 55° SW 04:15:11 10° SE visible
20 Jul - 06:03:39 10° W 06:09:28 18° SW 06:15:13 10° SSW daylight
20 Jul - 19:20:44 10° SSE 19:26:15 16° SE 19:31:42 10° E daylight
20 Jul - 21:20:02 10° SW 21:29:36 51° SE 21:38:55 10° ENE visible
20 Jul - 23:24:16 10° WSW 23:34:19 90° S 23:44:03 10° ENE visible
21 Jul - 01:29:50 10° W 01:39:45 87° N 01:49:19 10° E visible
21 Jul - 03:35:11 10° WNW 03:44:34 57° SSW 03:53:39 10° SE visible
21 Jul - 05:41:48 10° W 05:47:57 19° SW 05:54:01 10° SSW daylight
21 Jul - 18:59:38 10° SSE 19:04:43 15° SE 19:09:44 10° E daylight
21 Jul - 20:58:29 10° SSW 21:07:59 49° SE 21:17:16 10° ENE daylight
21 Jul - 23:02:35 10° WSW 23:12:40 88° SSE 23:22:25 10° ENE visible
22 Jul - 01:08:08 10° W 01:18:06 86° N 01:27:41 10° E visible
22 Jul - 03:13:31 10° WNW 03:22:58 59° SSW 03:32:08 10° SE visible
22 Jul - 05:19:57 10° W 05:26:25 21° SW 05:32:48 10° S daylight
22 Jul - 18:38:35 10° SSE 18:43:11 14° ESE 18:47:43 10° E daylight
22 Jul - 20:36:57 10° SSW 20:46:23 47° SE 20:55:37 10° ENE daylight
22 Jul - 22:40:56 10° WSW 22:51:01 87° SSE 23:00:48 10° ENE visible
23 Jul - 00:46:28 10° W 00:56:27 85° N 01:06:04 10° E visible
23 Jul - 02:51:50 10° WNW 03:01:23 61° SSW 03:10:35 10° SE visible
23 Jul - 04:58:08 10° W 05:04:54 22° SW 05:11:33 10° S visible
23 Jul - 18:17:38 10° SE 18:21:38 13° ESE 18:25:36 10° E daylight
23 Jul - 20:15:24 10° SSW 20:24:47 45° SE 20:33:58 10° ENE daylight
23 Jul - 22:19:15 10° WSW 22:29:21 86° SSE 22:39:09 10° ENE visible
24 Jul - 00:24:47 10° W 00:34:47 85° N 00:44:26 10° E visible
24 Jul - 02:30:10 10° WNW 02:39:46 63° SSW 02:49:02 10° SE visible
24 Jul - 04:36:20 10° W 04:43:21 24° SW 04:50:16 10° S visible
24 Jul - 17:56:50 10° SE 18:00:06 12° ESE 18:03:21 10° ESE daylight
24 Jul - 19:53:52 10° SSW 20:03:11 43° SE 20:12:18 10° ENE daylight
24 Jul - 21:57:35 10° WSW 22:07:42 85° SSE 22:17:32 10° ENE visible
25 Jul - 00:03:05 10° W 00:13:08 84° N 00:22:48 10° E visible
25 Jul - 02:08:30 10° WNW 02:18:10 65° SSW 02:27:29 10° SE visible
25 Jul - 04:14:33 10° W 04:21:50 25° SW 04:28:57 10° S visible
25 Jul - 17:36:19 10° SE 17:38:34 11° ESE 17:40:49 10° ESE daylight
25 Jul - 19:32:21 10° SSW 19:41:35 42° SE 19:50:38 10° ENE daylight
25 Jul - 21:35:56 10° WSW 21:46:03 83° SSE 21:55:54 10° ENE visible
25 Jul - 23:41:25 10° W 23:51:28 84° N 00:01:10 10° E visible
26 Jul - 01:46:49 10° WNW 01:56:33 67° SSW 02:05:56 10° SE visible
26 Jul - 03:52:47 10° W 04:00:18 26° SW 04:07:38 10° S visible
26 Jul - 19:10:52 10° SSW 19:19:59 40° SE 19:28:58 10° ENE daylight
26 Jul - 21:14:16 10° WSW 21:24:23 82° SSE 21:34:16 10° ENE visible
26 Jul - 23:19:43 10° W 23:29:48 83° N 23:39:32 10° E visible
27 Jul - 01:25:10 10° WNW 01:34:57 69° SSW 01:44:22 10° SE visible
27 Jul - 03:31:01 10° WNW 03:38:44 28° SW 03:46:18 10° S visible
27 Jul - 18:49:22 10° SSW 18:58:23 38° SE 19:07:18 10° ENE daylight
27 Jul - 20:52:36 10° WSW 21:02:45 80° SSE 21:12:38 10° ENE daylight
27 Jul - 22:58:01 10° W 23:08:08 83° N 23:17:54 10° E visible
